Regional Weather Roundup
Issued by NWS

Home | Current Version | Previous Version | Text Only | Print | Product List | Glossary Off
Versions: 1 2 3 4 5 6 7 8 9 10 11 12 13 14 15 16 17 18 19 20 21 22 23 24 25 26 27 28 29 30 31 32 33 34 35 36 37 38 39 40 41 42 43 44 45 46 47 48 49 50

000
ASUS45 KSLC 171810
RWRUT

UTAH REGIONAL WEATHER ROUNDUP
NATIONAL WEATHER SERVICE SALT LAKE CITY UT
1200 PM MDT WED SEP 17 2014

UTZ001>011-023>025-171900-

NORTHERN UTAH

CITY           SKY/WX    TMP DP  RH WIND       PRES   REMARKS
HILL AFB       SUNNY     83  47  27 E7        30.03F
LOGAN          SUNNY     75  48  38 CALM      30.01F
OGDEN          SUNNY     84  43  23 CALM      30.00F
PROVO AIRPORT  SUNNY     79  55  44 W6        30.05S
SALT LAKE CITY MOSUNNY   88  41  19 S13G21    29.97F
VERNAL         SUNNY     73  45  36 SE5       30.12F
WENDOVER       SUNNY     81  39  22 E9        29.98S
HEBER CITY     SUNNY     73  43  33 CALM      30.11S
WEST JORDAN    SUNNY     84  45  24 S14       30.02F

$$

UTZ012>022-026-027-171900-

SOUTHERN UTAH

CITY           SKY/WX    TMP DP  RH WIND       PRES   REMARKS
BRYCE CANYON   SUNNY     69  48  47 SE13      30.27F
CEDAR CITY     SUNNY     79  51  37 VRB5      30.10F
MILFORD        SUNNY     83  52  34 S15       30.05F
MOAB/CYNLANDS  MOSUNNY   80  44  27 VRB3      30.05F
PRICE          SUNNY     80  37  21 SE9       30.15F
ST GEORGE      CLEAR     84  54  34 CALM      29.95F
KANAB            N/A     82  50  32 NE8       30.10F

$$

REGIONAL REPORTS     COLORADO/ARIZONA

CITY           SKY/WX    TMP DP  RH WIND       PRES   REMARKS
CRAIG, CO      SUNNY     77  42  28 CALM      30.18F
GRAND JUNCTION MOSUNNY   75  42  30 S8        30.10F
RIFLE          MOSUNNY   74  42  31 N5        30.14F
MONTROSE       SUNNY     78  46  32 VRB6      30.16F
CORTEZ         MOSUNNY   74  53  48 S6        30.19F
PAGE, AZ       MOSUNNY   81  54  39 VRB5      30.07F
GRAND CANYON   PTSUNNY   71  53  52 SE12      30.21S
KINGMAN        MOSUNNY   83  58  42 SE8       29.99F
FLAGSTAFF      LGT RAIN  60  56  86 NE8       30.24S

$$

REGIONAL REPORTS    NEVADA/IDAHO/WYOMING

CITY           SKY/WX    TMP DP  RH WIND       PRES   REMARKS
LAS VEGAS, NV  MOSUNNY   89  59  36 CALM      29.86F
ELY            SUNNY     79  44  28 CALM      30.12F
ELKO           MOSUNNY   80  36  20 CALM      30.02F
POCATELLO, ID  MOSUNNY   84  45  25 NE5       29.98F
BURLEY         MOSUNNY   80  48  32 SE5       29.93F
EVANSTON, WY   SUNNY     74  43  32 VRB5      30.22R
ROCK SPRINGS   MOSUNNY   72  38  29 NW14      30.22S

$$



USA.gov is the U.S. government's official web portal to all federal, state and local government web resources and services.